SPIRALE B

Last updated on Nov. 21, 2019, 4:16 a.m. UTC

1 33752U 09008D   19324.10787618  .00000608  00000-0  13900-3 0  9994
2 33752   1.9044 264.3211 6911978 227.1065  50.0396  2.75087970 99009
UTC
Height (km)
Latitude
Longitude
Inclination
Orbital Period
UTC large
Height (km)
Speed (km/s)
/
Latitude / Longitude
Inclination (degrees)
Orbital Period (minutes)
Azimuth
Elevation
Range (km)
Doppler Factor
iOS Compass Heading
iOS Angle

Next 30 passes for location: Hong Kong

Rise time Rise Azimuth (degrees) Set time Set Azimuth (degrees) Duration Max altitude (degrees)

No matching passes for this satellites